When you browse on this site, cookies collect data to enhance your experience and personalize the content and advertising you see.
Visit our Privacy Policy to learn more. By continuing to use the site, you agree to this use of cookies and data.
  • In Netherlands
  • List of Countries
  • For 7 days
  • Water Temperature
  • Weather Map
  • Weather Widgets
  • user-avatar
    Login

    Hourly Weather Porto Alegre

    Today, 1 June, Monday

    Time Temperature Precipitation Wind Pressure Humidity
    00:00 +12°C° 0.1 mm 3 mps 760 mmHg 71%
    01:00 +12°C° 0 mm 3 mps 760 mmHg 73%
    02:00 +11°C° 0 mm 3 mps 760 mmHg 75%
    03:00 +11°C° 0 mm 3 mps 760 mmHg 78%
    04:00 +10°C° 0 mm 3 mps 760 mmHg 79%
    05:00 +10°C° 0 mm 3 mps 760 mmHg 80%
    06:00 +9°C° 0 mm 2 mps 760 mmHg 81%
    07:00 +10°C° 0 mm 2 mps 761 mmHg 79%
    08:00 +10°C° 0 mm 2 mps 761 mmHg 78%
    09:00 +10°C° 0 mm 2 mps 761 mmHg 76%
    10:00 +13°C° 0 mm 2 mps 761 mmHg 70%
    11:00 +14°C° 0 mm 2 mps 761 mmHg 64%
    12:00 +15°C° 0 mm 2 mps 761 mmHg 58%
    13:00 +16°C° 0 mm 2 mps 761 mmHg 56%
    14:00 +16°C° 0 mm 3 mps 761 mmHg 55%
    15:00 +17°C° 0 mm 3 mps 760 mmHg 53%
    16:00 +16°C° 0 mm 2 mps 761 mmHg 57%
    17:00 +15°C° 0 mm 2 mps 761 mmHg 61%
    18:00 +14°C° 0 mm 2 mps 761 mmHg 65%
    19:00 +13°C° 0 mm 2 mps 761 mmHg 67%
    20:00 +13°C° 0 mm 2 mps 762 mmHg 68%
    21:00 +13°C° 0 mm 1 mps 762 mmHg 69%
    22:00 +12°C° 0 mm 1 mps 762 mmHg 70%
    23:00 +12°C° 0 mm 1 mps 762 mmHg 72%

    Tomorrow, 2 June, Tuesday

    Time Temperature Precipitation Wind Pressure Humidity
    00:00 +12°C° 0 mm 2 mps 762 mmHg 73%
    01:00 +10°C° 0 mm 2 mps 762 mmHg 74%
    02:00 +10°C° 0 mm 2 mps 761 mmHg 75%
    03:00 +10°C° 0 mm 2 mps 761 mmHg 76%
    04:00 +9°C° 0 mm 2 mps 761 mmHg 78%
    05:00 +9°C° 0 mm 2 mps 761 mmHg 79%
    06:00 +9°C° 0 mm 2 mps 762 mmHg 81%
    07:00 +9°C° 0 mm 2 mps 762 mmHg 80%
    08:00 +9°C° 0 mm 2 mps 762 mmHg 78%
    09:00 +10°C° 0 mm 2 mps 763 mmHg 77%
    10:00 +12°C° 0 mm 2 mps 762 mmHg 73%
    11:00 +14°C° 0 mm 2 mps 762 mmHg 70%
    12:00 +15°C° 0 mm 2 mps 762 mmHg 66%
    13:00 +15°C° 0 mm 2 mps 761 mmHg 66%
    14:00 +16°C° 0 mm 2 mps 761 mmHg 65%
    15:00 +16°C° 0 mm 2 mps 761 mmHg 65%
    16:00 +16°C° 0 mm 2 mps 761 mmHg 68%
    17:00 +15°C° 0 mm 1 mps 761 mmHg 72%
    18:00 +15°C° 0 mm 1 mps 761 mmHg 76%
    19:00 +14°C° 0 mm 1 mps 762 mmHg 77%
    20:00 +14°C° 0 mm 1 mps 762 mmHg 79%
    21:00 +14°C° 0 mm 1 mps 762 mmHg 80%
    22:00 +14°C° 0 mm 1 mps 762 mmHg 82%
    23:00 +12°C° 0 mm 0 mps 762 mmHg 83%

    Day after tomorrow, 3 June, Wednesday

    Time Temperature Precipitation Wind Pressure Humidity
    00:00 +12°C° 0 mm 0 mps 762 mmHg 85%
    01:00 +11°C° 0 mm 0 mps 762 mmHg 86%
    02:00 +12°C° 0 mm 1 mps 762 mmHg 86%
    03:00 +11°C° 0 mm 1 mps 762 mmHg 87%
    04:00 +11°C° 0 mm 1 mps 762 mmHg 86%
    05:00 +11°C° 0 mm 1 mps 762 mmHg 86%
    06:00 +11°C° 0 mm 1 mps 762 mmHg 86%
    07:00 +12°C° 0 mm 1 mps 763 mmHg 83%
    08:00 +12°C° 0 mm 1 mps 763 mmHg 81%
    09:00 +13°C° 0 mm 1 mps 764 mmHg 79%
    10:00 +15°C° 0 mm 1 mps 764 mmHg 74%
    11:00 +16°C° 0 mm 1 mps 763 mmHg 69%
    12:00 +19°C° 0 mm 1 mps 763 mmHg 64%
    13:00 +19°C° 0 mm 2 mps 763 mmHg 64%
    14:00 +19°C° 0 mm 2 mps 763 mmHg 64%
    15:00 +20°C° 0 mm 3 mps 762 mmHg 63%
    16:00 +19°C° 0 mm 3 mps 762 mmHg 70%
    17:00 +18°C° 0 mm 3 mps 763 mmHg 76%
    18:00 +17°C° 0 mm 3 mps 763 mmHg 82%
    19:00 +16°C° 0 mm 3 mps 763 mmHg 82%
    20:00 +16°C° 0 mm 3 mps 764 mmHg 83%
    21:00 +16°C° 0 mm 3 mps 764 mmHg 84%
    22:00 +16°C° 0 mm 3 mps 764 mmHg 85%
    23:00 +16°C° 0 mm 3 mps 764 mmHg 86%

    4 June, Thursday

    Time Temperature Precipitation Wind Pressure Humidity
    00:00 +14°C° 0 mm 3 mps 765 mmHg 86%
    01:00 +14°C° 0 mm 3 mps 764 mmHg 87%
    02:00 +14°C° 0 mm 3 mps 764 mmHg 88%
    03:00 +14°C° 0 mm 3 mps 764 mmHg 89%
    04:00 +15°C° 0 mm 2 mps 764 mmHg 90%
    05:00 +15°C° 0 mm 2 mps 763 mmHg 91%
    06:00 +15°C° 0 mm 2 mps 763 mmHg 92%
    07:00 +15°C° 0 mm 2 mps 764 mmHg 89%
    08:00 +16°C° 0 mm 2 mps 764 mmHg 87%
    09:00 +16°C° 0 mm 2 mps 764 mmHg 85%
    10:00 +18°C° 0 mm 2 mps 764 mmHg 79%
    11:00 +19°C° 0 mm 2 mps 764 mmHg 72%
    12:00 +20°C° 0 mm 2 mps 764 mmHg 66%
    13:00 +20°C° 0 mm 2 mps 764 mmHg 64%
    14:00 +20°C° 0 mm 2 mps 763 mmHg 63%
    15:00 +21°C° 0 mm 3 mps 762 mmHg 61%
    16:00 +20°C° 0 mm 3 mps 762 mmHg 66%
    17:00 +19°C° 0 mm 3 mps 762 mmHg 71%
    18:00 +18°C° 0 mm 4 mps 762 mmHg 76%
    19:00 +17°C° 0 mm 4 mps 762 mmHg 78%
    20:00 +17°C° 0 mm 4 mps 762 mmHg 80%
    21:00 +17°C° 0 mm 4 mps 762 mmHg 82%
    22:00 +17°C° 0 mm 3 mps 762 mmHg 81%
    23:00 +17°C° 0 mm 3 mps 762 mmHg 81%

    5 June, Friday

    Time Temperature Precipitation Wind Pressure Humidity
    00:00 +17°C° 0 mm 3 mps 761 mmHg 81%
    01:00 +17°C° 0.5 mm 3 mps 761 mmHg 84%
    02:00 +17°C° 0.5 mm 3 mps 761 mmHg 87%
    03:00 +17°C° 0.5 mm 2 mps 761 mmHg 90%
    04:00 +17°C° 1.6 mm 3 mps 760 mmHg 91%
    05:00 +17°C° 1.6 mm 3 mps 760 mmHg 93%
    06:00 +17°C° 1.6 mm 3 mps 759 mmHg 94%
    07:00 +17°C° 2.6 mm 3 mps 759 mmHg 94%
    08:00 +17°C° 2.6 mm 3 mps 759 mmHg 94%
    09:00 +17°C° 2.6 mm 3 mps 759 mmHg 94%
    10:00 +17°C° 2.4 mm 3 mps 759 mmHg 92%
    11:00 +18°C° 2.4 mm 3 mps 759 mmHg 91%
    12:00 +18°C° 2.4 mm 4 mps 758 mmHg 89%
    13:00 +18°C° 2.5 mm 4 mps 757 mmHg 91%
    14:00 +18°C° 2.5 mm 4 mps 756 mmHg 92%
    15:00 +18°C° 2.5 mm 4 mps 755 mmHg 94%
    16:00 +18°C° 1.2 mm 3 mps 755 mmHg 94%
    17:00 +18°C° 1.2 mm 2 mps 755 mmHg 94%
    18:00 +18°C° 1.2 mm 2 mps 755 mmHg 93%
    19:00 +19°C° 3.6 mm 1 mps 755 mmHg 94%
    20:00 +19°C° 3.6 mm 1 mps 755 mmHg 95%
    21:00 +19°C° 3.6 mm 1 mps 756 mmHg 97%
    22:00 +18°C° 0.2 mm 2 mps 756 mmHg 92%
    23:00 +17°C° 0.2 mm 3 mps 756 mmHg 87%

    6 June, Saturday

    Time Temperature Precipitation Wind Pressure Humidity
    00:00 +17°C° 0.2 mm 4 mps 756 mmHg 82%
    01:00 +15°C° 0 mm 4 mps 756 mmHg 80%
    02:00 +15°C° 0 mm 4 mps 756 mmHg 78%
    03:00 +14°C° 0 mm 4 mps 756 mmHg 76%
    04:00 +14°C° 0 mm 4 mps 756 mmHg 77%
    05:00 +13°C° 0 mm 3 mps 756 mmHg 78%
    06:00 +13°C° 0 mm 3 mps 756 mmHg 78%
    07:00 +13°C° 0 mm 3 mps 756 mmHg 77%
    08:00 +14°C° 0 mm 3 mps 756 mmHg 75%
    09:00 +14°C° 0 mm 3 mps 756 mmHg 73%
    10:00 +14°C° 0.4 mm 3 mps 756 mmHg 75%
    11:00 +14°C° 0.4 mm 3 mps 756 mmHg 78%
    12:00 +14°C° 0.4 mm 3 mps 755 mmHg 80%
    13:00 +14°C° 1.3 mm 4 mps 755 mmHg 83%
    14:00 +14°C° 1.3 mm 4 mps 755 mmHg 86%
    15:00 +14°C° 1.3 mm 4 mps 754 mmHg 89%
    16:00 +14°C° 0.7 mm 4 mps 754 mmHg 88%
    17:00 +14°C° 0.7 mm 4 mps 755 mmHg 87%
    18:00 +14°C° 0.7 mm 3 mps 755 mmHg 86%
    19:00 +14°C° 0.2 mm 3 mps 755 mmHg 87%
    20:00 +14°C° 0.2 mm 3 mps 756 mmHg 88%
    21:00 +14°C° 0.2 mm 3 mps 756 mmHg 88%
    22:00 +14°C° 0 mm 3 mps 756 mmHg 89%
    23:00 +14°C° 0 mm 3 mps 756 mmHg 89%
    Show more